Time,TemperatureF,DewpointF,PressureIn,WindDirection,WindDirectionDegrees,WindSpeedMPH,WindSpeedGustMPH,Humidity,HourlyPrecipIn,Conditions,Clouds,dailyrainin,SoftwareType,DateUTC
2013-09-26 00:01:00,65.6,59.3,29.90,SE,128,12.0,12.0,80,0.00,,,0.00,VWS V14.00,2013-09-26 05:01:00,
2013-09-26 00:06:00,65.4,59.4,29.90,ENE,58,9.0,12.0,81,0.00,,,0.00,VWS V14.00,2013-09-26 05:06:00,
2013-09-26 00:11:00,65.3,59.3,29.90,ESE,113,6.0,13.0,81,0.00,,,0.00,VWS V14.00,2013-09-26 05:11:00,
2013-09-26 00:16:00,65.1,59.1,29.90,ESE,122,9.0,15.0,81,0.00,,,0.00,VWS V14.00,2013-09-26 05:16:00,
2013-09-26 00:21:00,65.0,59.4,29.90,NE,35,3.0,15.0,82,0.00,,,0.00,VWS V14.00,2013-09-26 05:21:00,
2013-09-26 00:26:00,65.0,59.4,29.90,SE,126,3.0,16.0,82,0.00,,,0.00,VWS V14.00,2013-09-26 05:26:00,
2013-09-26 00:31:00,65.0,59.4,29.90,SE,132,7.0,10.0,82,0.00,,,0.00,VWS V14.00,2013-09-26 05:31:00,
2013-09-26 00:35:00,64.9,59.3,29.90,SSE,158,10.0,15.0,82,0.00,,,0.00,VWS V14.00,2013-09-26 05:35:00,
2013-09-26 00:40:00,64.9,59.6,29.90,SE,137,6.0,17.0,83,0.00,,,0.00,VWS V14.00,2013-09-26 05:40:00,
2013-09-26 00:45:00,64.8,59.5,29.90,SSE,160,6.0,17.0,83,0.00,,,0.00,VWS V14.00,2013-09-26 05:45:00,
2013-09-26 00:50:00,64.8,59.5,29.90,ESE,109,5.0,17.0,83,0.00,,,0.00,VWS V14.00,2013-09-26 05:50:00,
2013-09-26 00:55:00,64.7,59.4,29.90,East,94,0.0,17.0,83,0.00,,,0.00,VWS V14.00,2013-09-26 05:55:00,
2013-09-26 01:00:00,64.6,59.3,29.90,SE,133,7.0,14.0,83,0.00,,,0.00,VWS V14.00,2013-09-26 06:00:00,
2013-09-26 01:05:00,64.5,59.6,29.90,ESE,115,7.0,14.0,84,0.00,,,0.00,VWS V14.00,2013-09-26 06:05:00,
2013-09-26 01:10:00,64.4,59.5,29.90,ESE,123,7.0,14.0,84,0.00,,,0.00,VWS V14.00,2013-09-26 06:10:00,
2013-09-26 01:15:00,64.4,59.5,29.90,ESE,104,9.0,15.0,84,0.00,,,0.00,VWS V14.00,2013-09-26 06:15:00,
2013-09-26 01:20:00,64.3,59.4,29.89,ESE,115,5.0,15.0,84,0.00,,,0.00,VWS V14.00,2013-09-26 06:20:00,
2013-09-26 01:26:00,64.2,59.3,29.89,ESE,109,10.0,15.0,84,0.00,,,0.00,VWS V14.00,2013-09-26 06:26:00,
2013-09-26 01:30:00,64.2,59.3,29.89,ESE,106,5.0,15.0,84,0.00,,,0.00,VWS V14.00,2013-09-26 06:30:00,
2013-09-26 01:35:00,64.1,59.5,29.90,SE,128,3.0,13.0,85,0.00,,,0.00,VWS V14.00,2013-09-26 06:35:00,
2013-09-26 01:40:00,64.1,59.5,29.90,ESE,107,0.0,13.0,85,0.00,,,0.00,VWS V14.00,2013-09-26 06:40:00,
2013-09-26 01:45:00,64.0,59.4,29.90,SE,136,6.0,13.0,85,0.00,,,0.00,VWS V14.00,2013-09-26 06:45:00,
2013-09-26 01:50:00,64.0,59.4,29.89,ESE,102,0.0,13.0,85,0.00,,,0.00,VWS V14.00,2013-09-26 06:50:00,
2013-09-26 01:55:00,63.9,59.3,29.89,East,96,3.0,13.0,85,0.00,,,0.00,VWS V14.00,2013-09-26 06:55:00,
2013-09-26 02:00:00,63.8,59.2,29.89,SE,133,0.0,0.0,85,0.00,,,0.00,VWS V14.00,2013-09-26 07:00:00,
2013-09-26 02:05:00,63.7,59.1,29.89,SE,144,0.0,11.0,85,0.00,,,0.00,VWS V14.00,2013-09-26 07:05:00,
2013-09-26 02:10:00,63.6,59.0,29.89,ESE,107,0.0,13.0,85,0.00,,,0.00,VWS V14.00,2013-09-26 07:10:00,
2013-09-26 02:15:00,63.6,59.0,29.89,SE,131,6.0,13.0,85,0.00,,,0.00,VWS V14.00,2013-09-26 07:15:00,
2013-09-26 02:20:00,63.6,59.3,29.90,SE,130,8.0,13.0,86,0.00,,,0.00,VWS V14.00,2013-09-26 07:20:00,
2013-09-26 02:25:00,63.5,59.2,29.90,ESE,118,4.0,13.0,86,0.00,,,0.00,VWS V14.00,2013-09-26 07:25:00,
2013-09-26 02:30:00,63.5,59.2,29.90,SE,133,7.0,13.0,86,0.00,,,0.00,VWS V14.00,2013-09-26 07:30:00,
2013-09-26 02:35:00,63.5,59.2,29.89,SE,126,5.0,12.0,86,0.00,,,0.00,VWS V14.00,2013-09-26 07:35:00,
2013-09-26 02:40:00,63.5,59.2,29.89,ESE,107,6.0,12.0,86,0.00,,,0.00,VWS V14.00,2013-09-26 07:40:00,
2013-09-26 02:45:00,63.4,59.2,29.90,ENE,78,0.0,12.0,86,0.00,,,0.00,VWS V14.00,2013-09-26 07:45:00,
2013-09-26 02:50:00,63.4,59.2,29.89,ESE,123,6.0,12.0,86,0.00,,,0.00,VWS V14.00,2013-09-26 07:50:00,
2013-09-26 02:55:00,63.3,59.0,29.89,ESE,117,0.0,12.0,86,0.00,,,0.00,VWS V14.00,2013-09-26 07:55:00,
2013-09-26 03:00:00,63.3,59.0,29.89,ESE,107,2.0,12.0,86,0.00,,,0.00,VWS V14.00,2013-09-26 08:00:00,
2013-09-26 03:05:00,63.2,59.0,29.89,SE,130,7.0,9.0,86,0.00,,,0.00,VWS V14.00,2013-09-26 08:05:00,
2013-09-26 03:10:00,63.2,58.6,29.89,ESE,117,5.0,11.0,85,0.00,,,0.00,VWS V14.00,2013-09-26 08:10:00,
2013-09-26 03:15:00,63.2,58.6,29.89,East,96,6.0,14.0,85,0.00,,,0.00,VWS V14.00,2013-09-26 08:15:00,
2013-09-26 03:20:00,63.3,58.7,29.89,ESE,107,12.0,15.0,85,0.00,,,0.00,VWS V14.00,2013-09-26 08:20:00,
2013-09-26 03:25:00,63.3,58.7,29.89,East,101,6.0,15.0,85,0.00,,,0.00,VWS V14.00,2013-09-26 08:25:00,
2013-09-26 03:30:00,63.3,58.7,29.89,ENE,76,11.0,15.0,85,0.00,,,0.00,VWS V14.00,2013-09-26 08:30:00,
2013-09-26 03:35:00,63.2,58.6,29.89,ESE,106,12.0,13.0,85,0.00,,,0.00,VWS V14.00,2013-09-26 08:35:00,
2013-09-26 03:40:00,63.2,58.6,29.89,ESE,105,7.0,13.0,85,0.00,,,0.00,VWS V14.00,2013-09-26 08:40:00,
2013-09-26 03:45:00,63.2,58.6,29.88,East,98,5.0,14.0,85,0.00,,,0.00,VWS V14.00,2013-09-26 08:45:00,
2013-09-26 03:50:00,63.2,58.6,29.88,ENE,75,3.0,14.0,85,0.00,,,0.00,VWS V14.00,2013-09-26 08:50:00,
2013-09-26 03:55:00,63.2,58.6,29.88,ESE,105,2.0,15.0,85,0.00,,,0.00,VWS V14.00,2013-09-26 08:55:00,
2013-09-26 04:00:00,63.2,58.6,29.88,ESE,107,3.0,15.0,85,0.00,,,0.00,VWS V14.00,2013-09-26 09:00:00,
2013-09-26 04:05:00,63.2,58.6,29.88,SE,137,7.0,12.0,85,0.00,,,0.00,VWS V14.00,2013-09-26 09:05:00,
2013-09-26 04:10:00,63.4,58.5,29.88,SE,127,2.0,12.0,84,0.00,,,0.00,VWS V14.00,2013-09-26 09:10:00,
2013-09-26 04:15:00,63.5,58.6,29.88,ESE,123,7.0,15.0,84,0.00,,,0.00,VWS V14.00,2013-09-26 09:15:00,
2013-09-26 04:20:00,63.5,58.6,29.88,SSE,152,4.0,16.0,84,0.00,,,0.00,VWS V14.00,2013-09-26 09:20:00,
2013-09-26 04:25:00,63.6,58.7,29.88,SE,132,7.0,16.0,84,0.00,,,0.00,VWS V14.00,2013-09-26 09:25:00,
2013-09-26 04:30:00,63.7,58.8,29.88,ESE,115,4.0,16.0,84,0.00,,,0.00,VWS V14.00,2013-09-26 09:30:00,
2013-09-26 04:35:00,63.7,58.5,29.88,SSE,161,7.0,19.0,83,0.00,,,0.00,VWS V14.00,2013-09-26 09:35:00,
2013-09-26 04:40:00,63.8,58.5,29.88,ESE,109,5.0,19.0,83,0.00,,,0.00,VWS V14.00,2013-09-26 09:40:00,
2013-09-26 04:45:00,63.9,58.6,29.88,SE,126,6.0,23.0,83,0.00,,,0.00,VWS V14.00,2013-09-26 09:45:00,
2013-09-26 04:50:00,64.0,58.4,29.88,SE,134,10.0,23.0,82,0.00,,,0.00,VWS V14.00,2013-09-26 09:50:00,
2013-09-26 04:55:00,64.0,58.4,29.88,SE,146,13.0,23.0,82,0.00,,,0.00,VWS V14.00,2013-09-26 09:55:00,
2013-09-26 05:00:00,64.0,58.4,29.88,SE,145,7.0,23.0,82,0.00,,,0.00,VWS V14.00,2013-09-26 10:00:00,
2013-09-26 05:05:00,64.0,58.4,29.88,SE,130,11.0,16.0,82,0.00,,,0.00,VWS V14.00,2013-09-26 10:05:00,
2013-09-26 05:10:00,63.9,58.3,29.88,East,95,10.0,16.0,82,0.00,,,0.00,VWS V14.00,2013-09-26 10:10:00,
2013-09-26 05:15:00,63.9,58.3,29.88,SSE,165,13.0,16.0,82,0.00,,,0.00,VWS V14.00,2013-09-26 10:15:00,
2013-09-26 05:20:00,63.9,58.0,29.88,SE,137,3.0,16.0,81,0.00,,,0.00,VWS V14.00,2013-09-26 10:20:00,
2013-09-26 05:25:00,63.9,58.0,29.88,ESE,105,6.0,17.0,81,0.00,,,0.00,VWS V14.00,2013-09-26 10:25:00,
2013-09-26 05:30:00,63.9,58.0,29.88,ESE,116,3.0,18.0,81,0.00,,,0.00,VWS V14.00,2013-09-26 10:30:00,
2013-09-26 05:35:00,63.9,58.0,29.88,ENE,75,6.0,17.0,81,0.00,,,0.00,VWS V14.00,2013-09-26 10:35:00,
2013-09-26 05:40:00,63.9,58.0,29.88,SE,125,8.0,17.0,81,0.00,,,0.00,VWS V14.00,2013-09-26 10:40:00,
2013-09-26 05:45:00,63.9,58.0,29.88,SE,128,9.0,19.0,81,0.00,,,0.00,VWS V14.00,2013-09-26 10:45:00,
2013-09-26 05:50:00,63.9,58.0,29.88,SE,142,12.0,19.0,81,0.00,,,0.00,VWS V14.00,2013-09-26 10:50:00,
2013-09-26 05:55:00,63.9,58.0,29.88,SSE,147,6.0,19.0,81,0.00,,,0.00,VWS V14.00,2013-09-26 10:55:00,
2013-09-26 06:00:00,63.9,58.0,29.88,SE,134,11.0,19.0,81,0.00,,,0.00,VWS V14.00,2013-09-26 11:00:00,
2013-09-26 06:05:00,63.9,58.0,29.87,SE,136,6.0,16.0,81,0.00,,,0.00,VWS V14.00,2013-09-26 11:05:00,
2013-09-26 06:10:00,63.9,58.0,29.87,ESE,109,13.0,16.0,81,0.00,,,0.00,VWS V14.00,2013-09-26 11:10:00,
2013-09-26 06:15:00,63.9,58.0,29.87,South,172,4.0,16.0,81,0.00,,,0.00,VWS V14.00,2013-09-26 11:15:00,
2013-09-26 06:20:00,63.9,58.0,29.87,ESE,116,11.0,16.0,81,0.00,,,0.00,VWS V14.00,2013-09-26 11:20:00,
2013-09-26 06:25:00,63.9,58.0,29.87,ESE,113,4.0,16.0,81,0.00,,,0.00,VWS V14.00,2013-09-26 11:25:00,
2013-09-26 06:30:00,63.9,57.6,29.87,ESE,121,5.0,16.0,80,0.00,,,0.00,VWS V14.00,2013-09-26 11:30:00,
2013-09-26 06:35:00,63.9,57.6,29.87,SSE,148,12.0,18.0,80,0.00,,,0.00,VWS V14.00,2013-09-26 11:35:00,
2013-09-26 06:40:00,64.0,57.7,29.87,ESE,123,4.0,18.0,80,0.00,,,0.00,VWS V14.00,2013-09-26 11:40:00,
2013-09-26 06:45:00,64.0,57.7,29.87,SE,140,7.0,18.0,80,0.00,,,0.00,VWS V14.00,2013-09-26 11:45:00,
2013-09-26 06:50:00,64.1,57.8,29.87,SE,132,8.0,20.0,80,0.00,,,0.00,VWS V14.00,2013-09-26 11:50:00,
2013-09-26 06:55:00,64.1,57.8,29.87,ENE,67,1.0,20.0,80,0.00,,,0.00,VWS V14.00,2013-09-26 11:55:00,
2013-09-26 07:00:00,64.1,57.8,29.87,SE,126,9.0,20.0,80,0.00,,,0.00,VWS V14.00,2013-09-26 12:00:00,
2013-09-26 07:05:00,64.2,57.9,29.87,SE,140,12.0,19.0,80,0.00,,,0.00,VWS V14.00,2013-09-26 12:05:00,
2013-09-26 07:10:00,64.2,57.6,29.87,SE,136,7.0,19.0,79,0.00,,,0.00,VWS V14.00,2013-09-26 12:10:00,
2013-09-26 07:15:00,64.2,57.6,29.87,ESE,102,11.0,19.0,79,0.00,,,0.00,VWS V14.00,2013-09-26 12:15:00,
2013-09-26 07:20:00,64.2,57.6,29.87,SSE,159,9.0,19.0,79,0.00,,,0.00,VWS V14.00,2013-09-26 12:20:00,
2013-09-26 07:25:00,64.3,57.7,29.87,SE,125,5.0,20.0,79,0.00,,,0.00,VWS V14.00,2013-09-26 12:25:00,
2013-09-26 07:30:00,64.3,57.7,29.87,East,98,12.0,20.0,79,0.00,,,0.00,VWS V14.00,2013-09-26 12:30:00,
2013-09-26 07:35:00,64.3,57.7,29.88,SE,139,11.0,17.0,79,0.00,,,0.00,VWS V14.00,2013-09-26 12:35:00,
2013-09-26 07:40:00,64.3,57.7,29.88,ESE,122,9.0,17.0,79,0.00,,,0.00,VWS V14.00,2013-09-26 12:40:00,
2013-09-26 07:45:00,64.3,57.7,29.88,ESE,114,11.0,17.0,79,0.00,,,0.00,VWS V14.00,2013-09-26 12:45:00,
2013-09-26 07:50:00,64.5,57.8,29.88,ESE,123,9.0,17.0,79,0.00,,,0.00,VWS V14.00,2013-09-26 12:50:00,
2013-09-26 07:55:00,64.6,58.0,29.88,East,98,4.0,22.0,79,0.00,,,0.00,VWS V14.00,2013-09-26 12:55:00,
2013-09-26 08:00:00,64.8,57.8,29.88,ESE,111,7.0,22.0,78,0.00,,,0.00,VWS V14.00,2013-09-26 13:00:00,
2013-09-26 08:05:00,64.9,57.9,29.88,East,98,5.0,17.0,78,0.00,,,0.00,VWS V14.00,2013-09-26 13:05:00,
2013-09-26 08:10:00,65.2,58.2,29.88,ESE,103,9.0,18.0,78,0.00,,,0.00,VWS V14.00,2013-09-26 13:10:00,
2013-09-26 08:15:00,65.4,58.0,29.88,SE,137,17.0,19.0,77,0.00,,,0.00,VWS V14.00,2013-09-26 13:15:00,
2013-09-26 08:20:00,65.9,58.1,29.88,ESE,121,9.0,19.0,76,0.00,,,0.00,VWS V14.00,2013-09-26 13:20:00,
2013-09-26 08:25:00,66.3,58.2,29.88,SE,134,5.0,19.0,75,0.00,,,0.00,VWS V14.00,2013-09-26 13:25:00,
2013-09-26 08:30:00,66.6,58.1,29.88,ESE,122,1.0,19.0,74,0.00,,,0.00,VWS V14.00,2013-09-26 13:30:00,
2013-09-26 08:35:00,67.0,58.5,29.88,SE,132,0.0,20.0,74,0.00,,,0.00,VWS V14.00,2013-09-26 13:35:00,
2013-09-26 08:40:00,67.4,58.1,29.88,South,173,0.0,20.0,72,0.00,,,0.00,VWS V14.00,2013-09-26 13:40:00,
2013-09-26 08:45:00,67.8,58.5,29.88,SE,144,13.0,20.0,72,0.00,,,0.00,VWS V14.00,2013-09-26 13:45:00,
2013-09-26 08:50:00,68.2,58.0,29.88,SSE,155,12.0,20.0,70,0.00,,,0.00,VWS V14.00,2013-09-26 13:50:00,
2013-09-26 08:55:00,68.7,58.1,29.88,SE,136,9.0,20.0,69,0.00,,,0.00,VWS V14.00,2013-09-26 13:55:00,
2013-09-26 09:00:00,69.1,58.1,29.89,SE,138,17.0,22.0,68,0.00,,,0.00,VWS V14.00,2013-09-26 14:00:00,
2013-09-26 09:05:00,69.5,58.1,29.88,SSE,161,7.0,18.0,67,0.00,,,0.00,VWS V14.00,2013-09-26 14:05:00,
2013-09-26 09:10:00,69.9,58.5,29.88,ENE,71,0.0,23.0,67,0.00,,,0.00,VWS V14.00,2013-09-26 14:10:00,
2013-09-26 09:15:00,70.3,58.4,29.88,ENE,69,11.0,23.0,66,0.00,,,0.00,VWS V14.00,2013-09-26 14:15:00,
2013-09-26 09:20:00,70.7,57.9,29.88,SSE,156,7.0,23.0,64,0.00,,,0.00,VWS V14.00,2013-09-26 14:20:00,
2013-09-26 09:25:00,71.1,57.9,29.88,SE,138,10.0,31.0,63,0.00,,,0.00,VWS V14.00,2013-09-26 14:25:00,
2013-09-26 09:30:00,71.4,57.7,29.88,East,101,9.0,31.0,62,0.00,,,0.00,VWS V14.00,2013-09-26 14:30:00,
2013-09-26 09:35:00,71.9,58.2,29.88,ESE,113,6.0,15.0,62,0.00,,,0.00,VWS V14.00,2013-09-26 14:35:00,
2013-09-26 09:40:00,72.3,58.1,29.88,South,179,10.0,24.0,61,0.00,,,0.00,VWS V14.00,2013-09-26 14:40:00,
2013-09-26 09:45:00,72.8,58.1,29.88,SE,137,9.0,25.0,60,0.00,,,0.00,VWS V14.00,2013-09-26 14:45:00,
2013-09-26 09:50:00,73.3,57.2,29.88,SE,140,12.0,25.0,57,0.00,,,0.00,VWS V14.00,2013-09-26 14:50:00,
2013-09-26 09:55:00,73.7,57.5,29.88,ESE,103,18.0,26.0,57,0.00,,,0.00,VWS V14.00,2013-09-26 14:55:00,
2013-09-26 10:00:00,74.1,57.4,29.88,SSE,150,32.0,32.0,56,0.00,,,0.00,VWS V14.00,2013-09-26 15:00:00,
2013-09-26 10:05:00,74.3,57.6,29.88,South,169,17.0,25.0,56,0.00,,,0.00,VWS V14.00,2013-09-26 15:05:00,
2013-09-26 10:10:00,74.7,58.0,29.88,ESE,118,13.0,25.0,56,0.00,,,0.00,VWS V14.00,2013-09-26 15:10:00,
2013-09-26 10:15:00,75.1,57.8,29.88,ESE,109,4.0,25.0,55,0.00,,,0.00,VWS V14.00,2013-09-26 15:15:00,
2013-09-26 10:20:00,75.4,57.6,29.88,ESE,123,19.0,25.0,54,0.00,,,0.00,VWS V14.00,2013-09-26 15:20:00,
2013-09-26 10:25:00,75.4,57.6,29.88,South,182,13.0,28.0,54,0.00,,,0.00,VWS V14.00,2013-09-26 15:25:00,
2013-09-26 10:30:00,75.7,57.9,29.88,ESE,123,11.0,28.0,54,0.00,,,0.00,VWS V14.00,2013-09-26 15:30:00,
2013-09-26 10:35:00,75.9,58.1,29.88,SSE,147,11.0,21.0,54,0.00,,,0.00,VWS V14.00,2013-09-26 15:35:00,
2013-09-26 10:40:00,76.0,58.2,29.88,South,179,11.0,26.0,54,0.00,,,0.00,VWS V14.00,2013-09-26 15:40:00,
2013-09-26 10:45:00,76.2,58.4,29.88,ESE,108,12.0,26.0,54,0.00,,,0.00,VWS V14.00,2013-09-26 15:45:00,
2013-09-26 10:50:00,76.5,58.1,29.88,ESE,122,10.0,26.0,53,0.00,,,0.00,VWS V14.00,2013-09-26 15:50:00,
2013-09-26 10:55:00,76.6,58.7,29.88,SE,137,5.0,26.0,54,0.00,,,0.00,VWS V14.00,2013-09-26 15:55:00,
2013-09-26 11:00:00,76.8,58.4,29.88,SSE,155,6.0,27.0,53,0.00,,,0.00,VWS V14.00,2013-09-26 16:00:00,
2013-09-26 11:05:00,77.0,58.6,29.88,East,97,2.0,22.0,53,0.00,,,0.00,VWS V14.00,2013-09-26 16:05:00,
2013-09-26 11:10:00,77.4,59.0,29.88,South,184,9.0,23.0,53,0.00,,,0.00,VWS V14.00,2013-09-26 16:10:00,
2013-09-26 11:15:00,77.6,59.1,29.88,ESE,107,12.0,23.0,53,0.00,,,0.00,VWS V14.00,2013-09-26 16:15:00,
2013-09-26 11:20:00,78.1,59.1,29.88,ENE,74,17.0,23.0,52,0.00,,,0.00,VWS V14.00,2013-09-26 16:20:00,
2013-09-26 11:25:00,78.3,59.2,29.88,South,180,5.0,23.0,52,0.00,,,0.00,VWS V14.00,2013-09-26 16:25:00,
2013-09-26 11:30:00,78.4,59.3,29.88,SSE,163,7.0,25.0,52,0.00,,,0.00,VWS V14.00,2013-09-26 16:30:00,
2013-09-26 11:35:00,78.6,59.5,29.88,East,97,13.0,20.0,52,0.00,,,0.00,VWS V14.00,2013-09-26 16:35:00,
2013-09-26 11:40:00,78.9,59.8,29.88,SSE,160,17.0,21.0,52,0.00,,,0.00,VWS V14.00,2013-09-26 16:40:00,
2013-09-26 11:45:00,79.4,59.2,29.88,SSE,167,5.0,25.0,50,0.00,,,0.00,VWS V14.00,2013-09-26 16:45:00,
2013-09-26 11:50:00,79.6,59.3,29.88,SE,136,15.0,25.0,50,0.00,,,0.00,VWS V14.00,2013-09-26 16:50:00,
2013-09-26 11:55:00,80.0,59.7,29.88,ENE,78,3.0,25.0,50,0.00,,,0.00,VWS V14.00,2013-09-26 16:55:00,
2013-09-26 12:00:00,80.3,59.4,29.88,SE,144,13.0,25.0,49,0.00,,,0.00,VWS V14.00,2013-09-26 17:00:00,
2013-09-26 12:05:00,80.6,59.7,29.88,SSE,160,7.0,21.0,49,0.00,,,0.00,VWS V14.00,2013-09-26 17:05:00,
2013-09-26 12:10:00,80.8,59.9,29.88,ENE,76,7.0,21.0,49,0.00,,,0.00,VWS V14.00,2013-09-26 17:10:00,
2013-09-26 12:15:00,81.3,59.8,29.88,SE,140,13.0,23.0,48,0.00,,,0.00,VWS V14.00,2013-09-26 17:15:00,
2013-09-26 12:20:00,81.7,60.1,29.87,SSE,152,12.0,23.0,48,0.00,,,0.00,VWS V14.00,2013-09-26 17:20:00,
2013-09-26 12:25:00,82.0,59.8,29.87,South,187,15.0,23.0,47,0.00,,,0.00,VWS V14.00,2013-09-26 17:25:00,
2013-09-26 12:30:00,82.4,60.8,29.87,SSE,153,3.0,23.0,48,0.00,,,0.00,VWS V14.00,2013-09-26 17:30:00,
2013-09-26 12:36:00,82.9,60.6,29.87,SSE,159,10.0,16.0,47,0.00,,,0.00,VWS V14.00,2013-09-26 17:36:00,
2013-09-26 12:41:00,82.9,60.0,29.87,SSE,168,4.0,22.0,46,0.00,,,0.00,VWS V14.00,2013-09-26 17:41:00,
2013-09-26 12:46:00,83.0,60.1,29.87,SE,129,10.0,23.0,46,0.00,,,0.00,VWS V14.00,2013-09-26 17:46:00,
2013-09-26 12:51:00,83.1,60.2,29.86,ESE,109,11.0,23.0,46,0.00,,,0.00,VWS V14.00,2013-09-26 17:51:00,
2013-09-26 12:56:00,83.4,60.5,29.86,SSE,157,10.0,23.0,46,0.00,,,0.00,VWS V14.00,2013-09-26 17:56:00,
2013-09-26 13:01:00,83.7,60.7,29.86,SSW,203,5.0,12.0,46,0.00,,,0.00,VWS V14.00,2013-09-26 18:01:00,
2013-09-26 13:06:00,83.9,60.9,29.86,ESE,108,7.0,24.0,46,0.00,,,0.00,VWS V14.00,2013-09-26 18:06:00,
2013-09-26 13:11:00,84.3,60.7,29.86,SSW,195,12.0,24.0,45,0.00,,,0.00,VWS V14.00,2013-09-26 18:11:00,
2013-09-26 13:16:00,84.2,60.6,29.86,SE,139,11.0,30.0,45,0.00,,,0.00,VWS V14.00,2013-09-26 18:16:00,
2013-09-26 13:21:00,84.4,61.4,29.85,SE,130,6.0,30.0,46,0.00,,,0.00,VWS V14.00,2013-09-26 18:21:00,
2013-09-26 13:26:00,84.7,61.0,29.85,ESE,108,16.0,30.0,45,0.00,,,0.00,VWS V14.00,2013-09-26 18:26:00,
2013-09-26 13:31:00,84.5,60.8,29.85,ESE,121,9.0,14.0,45,0.00,,,0.00,VWS V14.00,2013-09-26 18:31:00,
2013-09-26 13:36:00,84.8,61.1,29.85,SE,124,17.0,18.0,45,0.00,,,0.00,VWS V14.00,2013-09-26 18:36:00,
2013-09-26 13:41:00,85.1,60.8,29.85,NE,51,1.0,18.0,44,0.00,,,0.00,VWS V14.00,2013-09-26 18:41:00,
2013-09-26 13:46:00,85.6,61.2,29.84,ESE,103,16.0,22.0,44,0.00,,,0.00,VWS V14.00,2013-09-26 18:46:00,
2013-09-26 13:51:00,85.8,61.4,29.84,SE,145,10.0,27.0,44,0.00,,,0.00,VWS V14.00,2013-09-26 18:51:00,
2013-09-26 13:56:00,85.8,61.4,29.84,NE,56,7.0,27.0,44,0.00,,,0.00,VWS V14.00,2013-09-26 18:56:00,
2013-09-26 14:01:00,86.2,61.1,29.84,SE,144,14.0,18.0,43,0.00,,,0.00,VWS V14.00,2013-09-26 19:01:00,
2013-09-26 14:06:00,86.3,61.2,29.84,ESE,107,9.0,27.0,43,0.00,,,0.00,VWS V14.00,2013-09-26 19:06:00,
2013-09-26 14:11:00,86.4,61.3,29.84,SSE,152,10.0,27.0,43,0.00,,,0.00,VWS V14.00,2013-09-26 19:11:00,
2013-09-26 14:16:00,86.5,61.4,29.84,SE,126,11.0,27.0,43,0.00,,,0.00,VWS V14.00,2013-09-26 19:16:00,
2013-09-26 14:21:00,86.6,61.5,29.83,South,169,9.0,27.0,43,0.00,,,0.00,VWS V14.00,2013-09-26 19:21:00,
2013-09-26 14:26:00,86.9,61.7,29.83,SSE,159,0.0,27.0,43,0.00,,,0.00,VWS V14.00,2013-09-26 19:26:00,
2013-09-26 14:31:00,87.1,61.2,29.83,SSE,147,7.0,15.0,42,0.00,,,0.00,VWS V14.00,2013-09-26 19:31:00,
2013-09-26 14:36:00,87.1,61.2,29.83,SSE,164,13.0,21.0,42,0.00,,,0.00,VWS V14.00,2013-09-26 19:36:00,
2013-09-26 14:41:00,87.3,61.4,29.83,South,179,8.0,23.0,42,0.00,,,0.00,VWS V14.00,2013-09-26 19:41:00,
2013-09-26 14:46:00,87.4,61.5,29.83,SSE,149,0.0,23.0,42,0.00,,,0.00,VWS V14.00,2013-09-26 19:46:00,
2013-09-26 14:51:00,87.5,61.6,29.83,SE,125,11.0,29.0,42,0.00,,,0.00,VWS V14.00,2013-09-26 19:51:00,
2013-09-26 14:56:00,87.7,61.1,29.83,ESE,103,7.0,29.0,41,0.00,,,0.00,VWS V14.00,2013-09-26 19:56:00,
2013-09-26 15:01:00,87.7,61.8,29.83,ESE,117,3.0,13.0,42,0.00,,,0.00,VWS V14.00,2013-09-26 20:01:00,
2013-09-26 15:06:00,87.7,61.1,29.83,SE,144,4.0,27.0,41,0.00,,,0.00,VWS V14.00,2013-09-26 20:06:00,
2013-09-26 15:11:00,88.0,61.4,29.83,SSE,150,14.0,27.0,41,0.00,,,0.00,VWS V14.00,2013-09-26 20:11:00,
2013-09-26 15:16:00,88.1,61.5,29.83,SE,140,5.0,27.0,41,0.00,,,0.00,VWS V14.00,2013-09-26 20:16:00,
2013-09-26 15:21:00,88.2,60.8,29.83,SE,136,10.0,27.0,40,0.00,,,0.00,VWS V14.00,2013-09-26 20:21:00,
2013-09-26 15:26:00,88.3,60.9,29.82,SE,130,11.0,27.0,40,0.00,,,0.00,VWS V14.00,2013-09-26 20:26:00,
2013-09-26 15:31:00,88.5,61.1,29.83,SSE,163,3.0,10.0,40,0.00,,,0.00,VWS V14.00,2013-09-26 20:31:00,
2013-09-26 15:36:00,88.7,61.3,29.82,SSE,157,5.0,24.0,40,0.00,,,0.00,VWS V14.00,2013-09-26 20:36:00,
2013-09-26 15:41:00,89.0,61.6,29.82,SE,146,7.0,24.0,40,0.00,,,0.00,VWS V14.00,2013-09-26 20:41:00,
2013-09-26 15:46:00,89.2,61.8,29.82,SE,140,23.0,24.0,40,0.00,,,0.00,VWS V14.00,2013-09-26 20:46:00,
2013-09-26 15:51:00,89.2,61.8,29.82,South,174,13.0,24.0,40,0.00,,,0.00,VWS V14.00,2013-09-26 20:51:00,
2013-09-26 15:56:00,89.3,61.1,29.82,SE,132,7.0,24.0,39,0.00,,,0.00,VWS V14.00,2013-09-26 20:56:00,
2013-09-26 16:01:00,89.2,61.0,29.82,SE,140,11.0,14.0,39,0.00,,,0.00,VWS V14.00,2013-09-26 21:01:00,
2013-09-26 16:06:00,89.0,61.6,29.82,South,171,12.0,20.0,40,0.00,,,0.00,VWS V14.00,2013-09-26 21:06:00,
2013-09-26 16:11:00,89.2,61.0,29.82,SE,130,7.0,20.0,39,0.00,,,0.00,VWS V14.00,2013-09-26 21:11:00,
2013-09-26 16:16:00,89.1,60.9,29.82,ESE,102,0.0,21.0,39,0.00,,,0.00,VWS V14.00,2013-09-26 21:16:00,
2013-09-26 16:21:00,89.1,60.9,29.82,SE,136,7.0,27.0,39,0.00,,,0.00,VWS V14.00,2013-09-26 21:21:00,
2013-09-26 16:26:00,89.0,60.8,29.82,South,169,14.0,27.0,39,0.00,,,0.00,VWS V14.00,2013-09-26 21:26:00,
2013-09-26 16:31:00,89.0,60.8,29.82,SSE,160,10.0,18.0,39,0.00,,,0.00,VWS V14.00,2013-09-26 21:31:00,
2013-09-26 16:36:00,88.9,60.8,29.82,SE,132,10.0,23.0,39,0.00,,,0.00,VWS V14.00,2013-09-26 21:36:00,
2013-09-26 16:41:00,88.9,60.8,29.82,SE,128,10.0,23.0,39,0.00,,,0.00,VWS V14.00,2013-09-26 21:41:00,
2013-09-26 16:46:00,88.9,61.5,29.83,SE,146,17.0,23.0,40,0.00,,,0.00,VWS V14.00,2013-09-26 21:46:00,
2013-09-26 16:51:00,88.9,60.8,29.82,SE,142,7.0,26.0,39,0.00,,,0.00,VWS V14.00,2013-09-26 21:51:00,
2013-09-26 16:56:00,88.9,61.5,29.82,South,173,3.0,26.0,40,0.00,,,0.00,VWS V14.00,2013-09-26 21:56:00,
2013-09-26 17:01:00,88.9,61.5,29.83,SE,135,13.0,14.0,40,0.00,,,0.00,VWS V14.00,2013-09-26 22:01:00,
2013-09-26 17:06:00,88.8,61.4,29.83,ESE,119,4.0,25.0,40,0.00,,,0.00,VWS V14.00,2013-09-26 22:06:00,
2013-09-26 17:11:00,88.6,61.2,29.82,SSE,156,1.0,25.0,40,0.00,,,0.00,VWS V14.00,2013-09-26 22:11:00,
2013-09-26 17:16:00,88.5,61.1,29.82,East,101,14.0,31.0,40,0.00,,,0.00,VWS V14.00,2013-09-26 22:16:00,
2013-09-26 17:21:00,88.3,60.9,29.83,SE,133,22.0,31.0,40,0.00,,,0.00,VWS V14.00,2013-09-26 22:21:00,
2013-09-26 17:26:00,88.1,60.8,29.82,SSE,167,12.0,31.0,40,0.00,,,0.00,VWS V14.00,2013-09-26 22:26:00,
2013-09-26 17:31:00,88.0,60.7,29.82,ESE,121,6.0,16.0,40,0.00,,,0.00,VWS V14.00,2013-09-26 22:31:00,
2013-09-26 17:36:00,87.9,61.3,29.82,SE,132,12.0,23.0,41,0.00,,,0.00,VWS V14.00,2013-09-26 22:36:00,
2013-09-26 17:41:00,87.9,61.3,29.82,SE,137,3.0,23.0,41,0.00,,,0.00,VWS V14.00,2013-09-26 22:41:00,
2013-09-26 17:46:00,87.9,61.3,29.82,SSE,159,13.0,23.0,41,0.00,,,0.00,VWS V14.00,2013-09-26 22:46:00,
2013-09-26 17:51:00,87.8,61.2,29.83,ESE,105,9.0,23.0,41,0.00,,,0.00,VWS V14.00,2013-09-26 22:51:00,
2013-09-26 17:56:00,87.7,61.1,29.83,SE,146,4.0,23.0,41,0.00,,,0.00,VWS V14.00,2013-09-26 22:56:00,
2013-09-26 18:01:00,87.5,60.9,29.83,ESE,115,18.0,18.0,41,0.00,,,0.00,VWS V14.00,2013-09-26 23:01:00,
2013-09-26 18:06:00,87.3,60.8,29.83,ESE,107,9.0,24.0,41,0.00,,,0.00,VWS V14.00,2013-09-26 23:06:00,
2013-09-26 18:11:00,87.1,60.6,29.83,ESE,110,11.0,24.0,41,0.00,,,0.00,VWS V14.00,2013-09-26 23:11:00,
2013-09-26 18:16:00,86.9,60.4,29.83,SE,144,7.0,24.0,41,0.00,,,0.00,VWS V14.00,2013-09-26 23:16:00,
2013-09-26 18:21:00,86.7,60.9,29.83,SE,135,0.0,24.0,42,0.00,,,0.00,VWS V14.00,2013-09-26 23:21:00,
2013-09-26 18:26:00,86.5,60.7,29.83,ESE,113,3.0,24.0,42,0.00,,,0.00,VWS V14.00,2013-09-26 23:26:00,
2013-09-26 18:31:00,86.3,61.2,29.83,South,178,6.0,13.0,43,0.00,,,0.00,VWS V14.00,2013-09-26 23:31:00,
2013-09-26 18:36:00,86.0,60.9,29.84,SE,137,0.0,15.0,43,0.00,,,0.00,VWS V14.00,2013-09-26 23:36:00,
2013-09-26 18:41:00,85.8,61.4,29.84,ESE,122,0.0,15.0,44,0.00,,,0.00,VWS V14.00,2013-09-26 23:41:00,
2013-09-26 18:46:00,85.5,61.1,29.84,ESE,123,0.0,15.0,44,0.00,,,0.00,VWS V14.00,2013-09-26 23:46:00,
2013-09-26 18:51:00,85.2,60.8,29.84,SSE,153,5.0,17.0,44,0.00,,,0.00,VWS V14.00,2013-09-26 23:51:00,
2013-09-26 18:56:00,84.9,61.2,29.84,SSE,153,9.0,17.0,45,0.00,,,0.00,VWS V14.00,2013-09-26 23:56:00,
2013-09-26 19:01:00,84.6,60.9,29.84,ESE,103,9.0,10.0,45,0.00,,,0.00,VWS V14.00,2013-09-27 00:01:00,
2013-09-26 19:06:00,84.3,60.7,29.84,ESE,107,2.0,15.0,45,0.00,,,0.00,VWS V14.00,2013-09-27 00:06:00,
2013-09-26 19:11:00,84.1,61.1,29.84,SE,137,11.0,15.0,46,0.00,,,0.00,VWS V14.00,2013-09-27 00:11:00,
2013-09-26 19:16:00,83.6,60.7,29.84,ESE,114,12.0,15.0,46,0.00,,,0.00,VWS V14.00,2013-09-27 00:16:00,
2013-09-26 19:21:00,83.3,61.0,29.84,SSE,150,13.0,15.0,47,0.00,,,0.00,VWS V14.00,2013-09-27 00:21:00,
2013-09-26 19:26:00,82.9,60.6,29.85,ESE,106,6.0,15.0,47,0.00,,,0.00,VWS V14.00,2013-09-27 00:26:00,
2013-09-26 19:31:00,82.5,60.8,29.85,ESE,115,1.0,10.0,48,0.00,,,0.00,VWS V14.00,2013-09-27 00:31:00,
2013-09-26 19:36:00,82.1,61.1,29.85,ENE,76,3.0,10.0,49,0.00,,,0.00,VWS V14.00,2013-09-27 00:36:00,
2013-09-26 19:41:00,81.7,60.7,29.85,SE,144,4.0,12.0,49,0.00,,,0.00,VWS V14.00,2013-09-27 00:41:00,
2013-09-26 19:46:00,81.4,61.0,29.86,SE,139,4.0,12.0,50,0.00,,,0.00,VWS V14.00,2013-09-27 00:46:00,
2013-09-26 19:51:00,81.1,60.7,29.86,SE,124,7.0,12.0,50,0.00,,,0.00,VWS V14.00,2013-09-27 00:51:00,
2013-09-26 19:56:00,80.7,60.9,29.86,SE,130,5.0,15.0,51,0.00,,,0.00,VWS V14.00,2013-09-27 00:56:00,
2013-09-26 20:01:00,80.5,61.3,29.86,SE,136,0.0,14.0,52,0.00,,,0.00,VWS V14.00,2013-09-27 01:01:00,
2013-09-26 20:06:00,80.3,61.1,29.86,SE,134,7.0,14.0,52,0.00,,,0.00,VWS V14.00,2013-09-27 01:06:00,
2013-09-26 20:11:00,80.1,60.9,29.86,ESE,113,2.0,14.0,52,0.00,,,0.00,VWS V14.00,2013-09-27 01:11:00,
2013-09-26 20:16:00,79.9,61.3,29.86,SE,134,4.0,14.0,53,0.00,,,0.00,VWS V14.00,2013-09-27 01:16:00,
2013-09-26 20:21:00,79.7,61.1,29.87,SE,146,11.0,14.0,53,0.00,,,0.00,VWS V14.00,2013-09-27 01:21:00,
2013-09-26 20:26:00,79.6,61.0,29.87,ESE,121,13.0,16.0,53,0.00,,,0.00,VWS V14.00,2013-09-27 01:26:00,
2013-09-26 20:31:00,79.5,60.9,29.87,ESE,122,12.0,12.0,53,0.00,,,0.00,VWS V14.00,2013-09-27 01:31:00,
2013-09-26 20:36:00,79.5,61.4,29.87,ESE,121,7.0,19.0,54,0.00,,,0.00,VWS V14.00,2013-09-27 01:36:00,
2013-09-26 20:41:00,79.4,61.3,29.87,SE,137,10.0,19.0,54,0.00,,,0.00,VWS V14.00,2013-09-27 01:41:00,
2013-09-26 20:46:00,79.3,61.2,29.87,SE,126,10.0,20.0,54,0.00,,,0.00,VWS V14.00,2013-09-27 01:46:00,
2013-09-26 20:51:00,79.3,61.2,29.87,ESE,111,7.0,20.0,54,0.00,,,0.00,VWS V14.00,2013-09-27 01:51:00,
2013-09-26 20:56:00,79.2,61.1,29.87,ESE,121,6.0,20.0,54,0.00,,,0.00,VWS V14.00,2013-09-27 01:56:00,
2013-09-26 21:01:00,79.1,61.0,29.88,ESE,113,1.0,13.0,54,0.00,,,0.00,VWS V14.00,2013-09-27 02:01:00,
2013-09-26 21:06:00,78.8,61.3,29.88,SE,133,15.0,17.0,55,0.00,,,0.00,VWS V14.00,2013-09-27 02:06:00,
2013-09-26 21:11:00,78.7,61.2,29.88,ENE,61,9.0,18.0,55,0.00,,,0.00,VWS V14.00,2013-09-27 02:11:00,
2013-09-26 21:16:00,78.7,61.2,29.88,SSW,204,10.0,19.0,55,0.00,,,0.00,VWS V14.00,2013-09-27 02:16:00,
2013-09-26 21:21:00,78.7,61.2,29.88,ESE,103,10.0,19.0,55,0.00,,,0.00,VWS V14.00,2013-09-27 02:21:00,
2013-09-26 21:26:00,78.4,61.4,29.88,East,94,2.0,19.0,56,0.00,,,0.00,VWS V14.00,2013-09-27 02:26:00,
2013-09-26 21:31:00,78.1,61.1,29.88,NNE,32,0.0,12.0,56,0.00,,,0.00,VWS V14.00,2013-09-27 02:31:00,
2013-09-26 21:36:00,77.7,61.3,29.88,South,177,9.0,16.0,57,0.00,,,0.00,VWS V14.00,2013-09-27 02:36:00,
2013-09-26 21:41:00,77.3,60.9,29.88,East,91,3.0,16.0,57,0.00,,,0.00,VWS V14.00,2013-09-27 02:41:00,
2013-09-26 21:46:00,76.8,60.9,29.88,East,91,0.0,16.0,58,0.00,,,0.00,VWS V14.00,2013-09-27 02:46:00,
2013-09-26 21:51:00,76.5,61.1,29.88,ESE,118,15.0,17.0,59,0.00,,,0.00,VWS V14.00,2013-09-27 02:51:00,
2013-09-26 21:56:00,76.1,61.2,29.88,East,97,2.0,17.0,60,0.00,,,0.00,VWS V14.00,2013-09-27 02:56:00,
2013-09-26 22:01:00,75.7,60.8,29.88,ESE,110,11.0,14.0,60,0.00,,,0.00,VWS V14.00,2013-09-27 03:01:00,
2013-09-26 22:06:00,75.5,61.1,29.88,East,97,5.0,17.0,61,0.00,,,0.00,VWS V14.00,2013-09-27 03:06:00,
2013-09-26 22:11:00,75.4,61.0,29.88,ESE,121,14.0,18.0,61,0.00,,,0.00,VWS V14.00,2013-09-27 03:11:00,
2013-09-26 22:16:00,75.3,60.9,29.88,SE,146,3.0,18.0,61,0.00,,,0.00,VWS V14.00,2013-09-27 03:16:00,
2013-09-26 22:21:00,75.1,60.8,29.89,East,89,5.0,21.0,61,0.00,,,0.00,VWS V14.00,2013-09-27 03:21:00,
2013-09-26 22:26:00,74.9,61.0,29.88,East,101,0.0,21.0,62,0.00,,,0.00,VWS V14.00,2013-09-27 03:26:00,
2013-09-26 22:31:00,74.7,60.8,29.89,East,97,0.0,16.0,62,0.00,,,0.00,VWS V14.00,2013-09-27 03:31:00,
2013-09-26 22:36:00,74.4,61.0,29.89,East,93,6.0,16.0,63,0.00,,,0.00,VWS V14.00,2013-09-27 03:36:00,
2013-09-26 22:41:00,74.3,60.9,29.89,ESE,117,5.0,16.0,63,0.00,,,0.00,VWS V14.00,2013-09-27 03:41:00,
2013-09-26 22:46:00,74.2,60.8,29.89,ENE,61,0.0,16.0,63,0.00,,,0.00,VWS V14.00,2013-09-27 03:46:00,
2013-09-26 22:51:00,74.1,61.2,29.89,ESE,109,0.0,16.0,64,0.00,,,0.00,VWS V14.00,2013-09-27 03:51:00,
2013-09-26 22:56:00,74.0,61.1,29.89,ESE,111,4.0,16.0,64,0.00,,,0.00,VWS V14.00,2013-09-27 03:56:00,
2013-09-26 23:01:00,73.9,61.0,29.89,SE,124,6.0,6.0,64,0.00,,,0.00,VWS V14.00,2013-09-27 04:01:00,
2013-09-26 23:06:00,73.8,60.9,29.89,SSE,160,3.0,14.0,64,0.00,,,0.00,VWS V14.00,2013-09-27 04:06:00,
2013-09-26 23:11:00,73.7,60.8,29.89,SE,135,4.0,14.0,64,0.00,,,0.00,VWS V14.00,2013-09-27 04:11:00,
2013-09-26 23:16:00,73.6,60.7,29.90,SE,144,4.0,17.0,64,0.00,,,0.00,VWS V14.00,2013-09-27 04:16:00,
2013-09-26 23:21:00,73.6,61.1,29.90,East,99,0.0,17.0,65,0.00,,,0.00,VWS V14.00,2013-09-27 04:21:00,
2013-09-26 23:26:00,73.6,61.1,29.90,ESE,111,8.0,17.0,65,0.00,,,0.00,VWS V14.00,2013-09-27 04:26:00,
2013-09-26 23:31:00,73.6,61.1,29.90,ESE,113,3.0,9.0,65,0.00,,,0.00,VWS V14.00,2013-09-27 04:31:00,
2013-09-26 23:36:00,73.5,61.0,29.90,SSE,165,7.0,14.0,65,0.00,,,0.00,VWS V14.00,2013-09-27 04:36:00,
2013-09-26 23:41:00,73.4,60.9,29.90,ESE,119,8.0,14.0,65,0.00,,,0.00,VWS V14.00,2013-09-27 04:41:00,
2013-09-26 23:46:00,73.4,60.9,29.90,ESE,119,7.0,14.0,65,0.00,,,0.00,VWS V14.00,2013-09-27 04:46:00,
2013-09-26 23:51:00,73.4,60.9,29.90,East,101,0.0,14.0,65,0.00,,,0.00,VWS V14.00,2013-09-27 04:51:00,
2013-09-26 23:56:00,73.4,60.9,29.90,SE,126,6.0,14.0,65,0.00,,,0.00,VWS V14.00,2013-09-27 04:56:00,